Temp
-29 -29 -29 -29 -29 -29 -29 -29 -29 -29 -29 -28 -28 -28 -28 -28 -28 -28 -28 -28 -28 -29 -29 -29 -28 -28 -28 -28 -28 -28 -28 -28 -28 -28 -28 -28 -28 -28 -28 -28 -28 -27 -27 -27 -27 -27 -27 -27 -27 -27 -27 -26 -26 -26 -26 -25 -25 -25 -25 -25 -25 -25 -25
-29 -29 -29 -29 -29 -29 -29 -29 -29 -29 -29 -29 -29 -29 -29 -29 -29 -29 -29 -29 -29 -29 -29 -29 -29 -29 -29 -29 -28 -28 -28 -28 -28 -28 -29 -29 -28 -28 -28 -28 -28 -28 -27 -27 -27 -27 -27 -27 -27 -28 -28 -28 -28 -27 -27 -26 -26 -26 -25 -25 -25 -25 -25
-30 -29 -29 -29 -29 -29 -29 -29 -29 -29 -29 -29 -29 -29 -29 -29 -29 -29 -29 -29 -29 -29 -29 -29 -29 -29 -29 -29 -29 -29 -28 -28 -28 -29 -29 -29 -29 -28 -28 -28 -28 -28 -28 -27 -27 -28 -28 -28 -28 -29 -30 -30 -30 -29 -28 -28 -27 -26 -26 -26 -26 -25 -25
-30 -30 -30 -30 -30 -30 -30 -30 -30 -30 -30 -29 -30 -29 -30 -30 -30 -30 -30 -30 -29 -29 -29 -29 -29 -29 -29 -29 -29 -29 -29 -29 -29 -29 -29 -29 -29 -29 -29 -29 -29 -28 -28 -28 -28 -28 -29 -29 -30 -31 -32 -32 -32 -31 -30 -29 -28 -28 -27 -27 -26 -26 -26
-30 -30 -30 -30 -30 -30 -30 -30 -30 -30 -30 -30 -30 -30 -30 -30 -30 -30 -30 -30 -30 -29 -29 -29 -29 -29 -29 -29 -29 -29 -29 -29 -29 -29 -29 -29 -29 -29 -29 -29 -29 -29 -29 -29 -29 -30 -31 -31 -32 -32 -33 -33 -33 -32 -31 -30 -30 -29 -28 -28 -27 -27 -27
-31 -31 -31 -31 -31 -30 -30 -30 -30 -30 -30 -30 -30 -30 -30 -30 -30 -30 -30 -30 -30 -29 -29 -29 -29 -29 -29 -29 -29 -29 -29 -29 -29 -29 -29 -30 -29 -29 -29 -30 -30 -31 -31 -31 -31 -32 -32 -33 -33 -33 -33 -33 -33 -33 -32 -31 -30 -30 -29 -28 -28 -28 -27
-31 -31 -31 -31 -31 -31 -31 -30 -30 -30 -30 -30 -30 -30 -30 -30 -30 -30 -30 -30 -30 -29 -29 -29 -29 -29 -29 -29 -29 -29 -29 -29 -29 -30 -30 -30 -30 -30 -30 -31 -32 -32 -32 -33 -33 -33 -33 -33 -33 -33 -33 -34 -33 -33 -33 -32 -31 -30 -30 -29 -29 -28 -28
-31 -31 -31 -31 -31 -31 -31 -30 -30 -30 -30 -30 -30 -30 -30 -30 -30 -30 -30 -30 -30 -30 -30 -30 -30 -30 -29 -29 -29 -29 -29 -30 -30 -30 -31 -31 -32 -31 -32 -33 -33 -34 -34 -34 -34 -34 -34 -34 -34 -34 -33 -34 -34 -33 -33 -32 -32 -31 -31 -30 -29 -29 -29
-31 -31 -31 -31 -31 -31 -31 -30 -30 -30 -30 -30 -30 -30 -30 -30 -30 -30 -30 -30 -30 -30 -30 -30 -30 -30 -30 -30 -30 -30 -30 -30 -31 -32 -32 -33 -33 -33 -33 -34 -35 -35 -35 -34 -34 -34 -34 -34 -34 -34 -33 -34 -34 -33 -33 -33 -32 -32 -31 -31 -30 -30 -30
-31 -31 -31 -31 -31 -31 -31 -31 -30 -30 -30 -30 -30 -30 -30 -30 -30 -30 -30 -30 -30 -30 -30 -30 -30 -30 -30 -30 -31 -31 -31 -32 -32 -33 -34 -35 -35 -34 -34 -35 -35 -35 -35 -35 -34 -34 -34 -34 -34 -34 -34 -34 -34 -34 -34 -33 -33 -32 -32 -32 -31 -30 -30
-31 -31 -31 -31 -31 -31 -31 -31 -31 -31 -30 -30 -30 -30 -30 -30 -30 -30 -30 -30 -30 -30 -30 -30 -31 -31 -32 -32 -32 -32 -33 -33 -34 -35 -35 -36 -35 -35 -35 -36 -36 -35 -35 -35 -35 -34 -34 -34 -34 -34 -34 -34 -34 -34 -34 -33 -33 -33 -33 -32 -32 -31 -31
-31 -31 -31 -31 -31 -31 -31 -31 -31 -31 -31 -31 -31 -31 -31 -31 -30 -30 -31 -31 -31 -31 -32 -32 -33 -33 -33 -34 -34 -34 -34 -35 -35 -36 -36 -36 -36 -35 -36 -36 -36 -36 -35 -35 -35 -34 -34 -34 -34 -34 -34 -34 -34 -34 -34 -34 -33 -33 -33 -33 -32 -32 -31
-32 -32 -32 -31 -31 -31 -31 -31 -31 -31 -31 -31 -32 -32 -32 -32 -32 -32 -32 -32 -33 -33 -33 -34 -34 -34 -35 -35 -35 -35 -36 -36 -36 -36 -37 -36 -36 -36 -36 -36 -36 -36 -35 -35 -35 -34 -34 -34 -34 -34 -34 -35 -35 -35 -34 -34 -34 -33 -33 -33 -32 -32 -32
-32 -32 -32 -32 -32 -32 -32 -32 -32 -32 -33 -33 -33 -34 -34 -34 -34 -34 -33 -34 -34 -35 -35 -35 -35 -35 -36 -36 -36 -36 -36 -37 -37 -37 -37 -37 -36 -36 -36 -36 -36 -36 -35 -35 -35 -35 -34 -34 -34 -34 -35 -35 -35 -35 -35 -34 -34 -34 -33 -33 -33 -32 -32
-33 -33 -33 -33 -33 -33 -33 -33 -34 -34 -34 -34 -35 -35 -35 -35 -35 -35 -35 -35 -36 -36 -36 -36 -36 -36 -37 -37 -37 -37 -37 -37 -37 -37 -37 -37 -37 -36 -36 -36 -36 -36 -35 -35 -35 -35 -35 -34 -34 -34 -35 -35 -35 -35 -35 -34 -34 -34 -33 -33 -33 -32 -32
-34 -34 -34 -34 -34 -34 -34 -34 -35 -35 -35 -35 -36 -36 -36 -36 -36 -36 -36 -36 -37 -37 -37 -37 -37 -37 -37 -37 -37 -37 -37 -38 -37 -37 -37 -37 -37 -36 -36 -36 -36 -36 -35 -35 -35 -35 -35 -35 -35 -35 -35 -35 -35 -35 -35 -34 -34 -33 -33 -33 -33 -33 -32
-35 -36 -36 -35 -35 -35 -35 -35 -36 -36 -36 -36 -37 -37 -37 -37 -37 -37 -37 -37 -37 -37 -37 -37 -37 -37 -37 -37 -37 -37 -38 -38 -37 -37 -37 -37 -37 -36 -36 -36 -36 -36 -36 -35 -35 -35 -35 -35 -35 -35 -35 -35 -35 -35 -35 -34 -34 -33 -33 -33 -33 -33 -32
-36 -36 -36 -36 -36 -36 -36 -36 -37 -37 -37 -37 -38 -37 -37 -37 -37 -37 -37 -37 -37 -37 -37 -37 -37 -37 -37 -37 -37 -37 -38 -38 -37 -37 -37 -37 -37 -36 -36 -36 -36 -36 -35 -35 -35 -35 -35 -35 -35 -35 -35 -35 -35 -35 -35 -34 -34 -33 -33 -33 -33 -33 -32
-37 -37 -37 -37 -37 -37 -37 -37 -37 -38 -37 -38 -38 -38 -38 -37 -37 -37 -37 -37 -37 -37 -37 -37 -37 -37 -37 -37 -38 -38 -38 -37 -37 -37 -37 -37 -36 -36 -36 -36 -36 -36 -35 -35 -35 -35 -35 -35 -35 -36 -36 -35 -35 -35 -34 -34 -33 -33 -33 -33 -33 -32 -32
-38 -38 -38 -38 -38 -38 -38 -38 -38 -38 -38 -38 -38 -38 -38 -37 -37 -37 -37 -38 -38 -37 -37 -37 -37 -38 -38 -37 -37 -37 -37 -37 -37 -37 -37 -37 -36 -36 -36 -36 -36 -36 -35 -35 -35 -35 -36 -36 -36 -36 -36 -36 -35 -35 -34 -34 -33 -33 -33 -33 -33 -32 -32
-39 -39 -39 -39 -39 -39 -39 -38 -38 -38 -38 -38 -38 -38 -38 -37 -37 -37 -38 -38 -37 -37 -37 -38 -37 -37 -37 -37 -37 -37 -37 -37 -37 -36 -36 -36 -36 -36 -36 -36 -36 -36 -35 -35 -35 -36 -36 -36 -36 -36 -36 -35 -35 -35 -34 -33 -33 -33 -33 -33 -32 -32 -32
-40 -40 -40 -39 -39 -39 -39 -39 -38 -38 -38 -39 -39 -38 -38 -37 -37 -37 -37 -37 -37 -37 -37 -37 -37 -37 -37 -37 -37 -37 -37 -37 -37 -36 -36 -36 -36 -36 -36 -36 -36 -35 -35 -35 -36 -36 -36 -36 -36 -36 -35 -35 -35 -34 -34 -33 -33 -33 -33 -33 -32 -32 -32
-41 -40 -40 -39 -39 -39 -39 -39 -38 -38 -39 -39 -38 -38 -38 -37 -37 -37 -37 -37 -37 -38 -38 -38 -37 -37 -37 -37 -37 -37 -37 -37 -36 -36 -36 -36 -36 -36 -36 -36 -35 -35 -35 -36 -36 -36 -36 -36 -35 -35 -35 -35 -34 -34 -33 -33 -33 -33 -33 -33 -32 -32 -32
-41 -41 -40 -39 -39 -40 -39 -39 -39 -39 -39 -39 -38 -38 -38 -37 -37 -37 -37 -37 -38 -38 -38 -38 -38 -37 -37 -37 -37 -37 -37 -36 -36 -36 -36 -36 -36 -36 -36 -35 -35 -35 -36 -36 -36 -35 -35 -35 -35 -35 -35 -34 -34 -33 -33 -33 -33 -33 -33 -33 -33 -32 -32
-41 -41 -40 -39 -39 -40 -40 -39 -39 -39 -39 -38 -38 -38 -38 -37 -37 -37 -37 -38 -38 -37 -37 -37 -37 -37 -37 -37 -37 -36 -36 -36 -36 -36 -36 -36 -36 -36 -35 -35 -36 -36 -35 -35 -35 -35 -35 -35 -35 -35 -34 -34 -34 -33 -33 -33 -33 -33 -33 -33 -33 -32 -32
-41 -41 -40 -40 -40 -40 -40 -39 -39 -39 -38 -38 -38 -38 -38 -37 -37 -37 -37 -37 -37 -37 -37 -37 -37 -37 -36 -36 -36 -36 -36 -36 -36 -36 -36 -36 -36 -35 -35 -35 -36 -36 -35 -35 -35 -35 -35 -35 -35 -35 -34 -34 -33 -33 -33 -33 -33 -33 -33 -33 -32 -32 -31
-42 -41 -41 -40 -40 -40 -40 -39 -39 -39 -38 -38 -38 -38 -37 -37 -37 -37 -37 -37 -37 -37 -36 -36 -36 -36 -36 -36 -36 -36 -36 -36 -36 -36 -36 -36 -36 -35 -35 -36 -36 -36 -36 -36 -35 -35 -35 -35 -35 -34 -34 -33 -33 -33 -33 -33 -33 -33 -33 -32 -32 -32 -31
-41 -41 -41 -40 -40 -40 -39 -39 -39 -39 -38 -38 -38 -38 -37 -37 -37 -37 -37 -37 -37 -36 -36 -36 -36 -36 -36 -36 -36 -36 -36 -36 -36 -36 -36 -36 -36 -36 -36 -36 -36 -36 -36 -36 -36 -35 -35 -35 -34 -34 -34 -33 -33 -33 -33 -33 -33 -33 -32 -32 -32 -31 -31
-41 -41 -41 -40 -40 -40 -40 -39 -39 -39 -38 -38 -38 -38 -37 -37 -37 -37 -37 -37 -37 -37 -36 -36 -36 -36 -36 -36 -36 -36 -36 -36 -36 -36 -36 -36 -36 -36 -36 -36 -36 -36 -36 -36 -36 -35 -35 -34 -34 -34 -34 -33 -33 -33 -33 -33 -33 -33 -32 -32 -31 -31 -31
-41 -41 -41 -40 -40 -40 -40 -39 -39 -39 -38 -38 -38 -38 -37 -37 -37 -37 -37 -37 -37 -36 -36 -36 -36 -36 -36 -36 -36 -36 -36 -37 -37 -37 -37 -37 -36 -36 -36 -36 -36 -36 -36 -36 -35 -35 -35 -35 -34 -34 -34 -33 -33 -33 -33 -33 -33 -32 -32 -32 -31 -32 -32
-41 -41 -41 -41 -40 -40 -40 -40 -39 -39 -38 -38 -38 -38 -37 -37 -37 -37 -37 -37 -37 -36 -36 -36 -36 -36 -36 -36 -36 -37 -37 -37 -37 -37 -37 -37 -36 -36 -36 -36 -36 -36 -36 -35 -35 -35 -35 -34 -34 -34 -34 -33 -33 -33 -33 -33 -33 -32 -32 -32 -32 -32 -32
-42 -41 -41 -41 -41 -40 -40 -40 -39 -39 -39 -38 -38 -38 -38 -37 -37 -37 -37 -37 -37 -37 -37 -37 -37 -37 -37 -37 -37 -37 -37 -37 -37 -37 -37 -37 -36 -36 -36 -36 -36 -36 -36 -35 -35 -35 -35 -34 -34 -34 -34 -33 -33 -33 -33 -33 -33 -32 -32 -32 -32 -32 -32
-42 -42 -42 -41 -41 -40 -40 -40 -40 -39 -39 -39 -38 -38 -38 -38 -38 -38 -37 -37 -37 -37 -37 -37 -37 -37 -37 -37 -37 -37 -37 -37 -37 -37 -37 -37 -36 -36 -36 -36 -36 -36 -36 -35 -35 -35 -34 -34 -34 -34 -34 -34 -34 -33 -33 -33 -33 -32 -32 -32 -32 -32 -32
-42 -42 -42 -41 -41 -40 -40 -40 -40 -40 -39 -39 -39 -38 -38 -38 -38 -38 -38 -38 -38 -38 -38 -38 -38 -38 -37 -37 -37 -37 -37 -37 -37 -37 -37 -36 -36 -36 -36 -36 -36 -36 -36 -35 -35 -35 -35 -35 -34 -34 -34 -34 -34 -34 -33 -33 -33 -32 -32 -32 -32 -32 -32
-43 -43 -42 -42 -41 -41 -41 -40 -40 -40 -40 -39 -39 -39 -39 -39 -39 -38 -38 -38 -38 -38 -38 -38 -38 -38 -38 -38 -37 -37 -37 -37 -37 -37 -37 -37 -37 -37 -36 -36 -36 -36 -36 -35 -35 -35 -35 -35 -35 -35 -34 -34 -34 -34 -33 -33 -33 -32 -32 -32 -32 -32 -32
-43 -43 -42 -42 -41 -41 -41 -41 -40 -40 -40 -40 -39 -39 -39 -39 -39 -39 -39 -39 -39 -38 -38 -38 -38 -38 -38 -38 -38 -37 -37 -37 -37 -37 -37 -37 -37 -37 -37 -36 -36 -36 -36 -35 -35 -35 -35 -35 -35 -35 -35 -34 -34 -34 -33 -33 -33 -33 -32 -32 -32 -32 -32
Height
5359 5357 5356 5355 5353 5351 5350 5348 5347 5344 5341 5340 5339 5337 5335 5334 5333 5330 5330 5331 5331 5331 5328 5326 5326 5327 5328 5327 5323 5322 5321 5318 5317 5316 5312 5310 5310 5312 5313 5313 5311 5311 5324 5333 5327 5329 5333 5331 5329 5330 5331 5335 5339 5342 5346 5351 5356 5363 5368 5374 5379 5383 5388
5347 5345 5342 5341 5339 5337 5336 5334 5332 5330 5327 5325 5324 5323 5321 5319 5316 5314 5314 5314 5314 5315 5313 5310 5310 5312 5314 5311 5307 5306 5306 5304 5303 5300 5297 5294 5292 5295 5298 5298 5296 5295 5302 5311 5312 5312 5314 5313 5313 5313 5314 5316 5320 5323 5327 5332 5339 5346 5352 5359 5364 5369 5374
5333 5331 5329 5327 5325 5323 5321 5319 5317 5315 5312 5310 5308 5307 5306 5304 5300 5298 5298 5297 5297 5298 5296 5294 5293 5296 5298 5295 5290 5290 5290 5290 5289 5285 5281 5279 5276 5278 5282 5282 5281 5280 5283 5290 5294 5295 5296 5296 5296 5298 5298 5299 5302 5306 5309 5316 5324 5330 5336 5343 5349 5355 5361
5319 5317 5315 5313 5311 5308 5306 5304 5302 5300 5297 5295 5292 5290 5290 5288 5285 5282 5280 5280 5280 5280 5279 5276 5276 5279 5281 5278 5273 5273 5275 5274 5273 5270 5267 5263 5260 5261 5265 5266 5265 5264 5266 5270 5275 5278 5280 5279 5280 5284 5285 5285 5288 5292 5296 5302 5309 5315 5321 5328 5334 5341 5347
5305 5302 5301 5299 5296 5293 5291 5288 5286 5284 5282 5279 5275 5273 5272 5270 5268 5266 5264 5263 5263 5262 5261 5259 5258 5260 5262 5259 5256 5257 5258 5257 5255 5254 5251 5247 5244 5245 5248 5248 5248 5249 5249 5251 5257 5262 5264 5264 5266 5271 5274 5274 5276 5280 5284 5289 5296 5301 5307 5314 5321 5328 5334
5291 5288 5286 5284 5281 5278 5276 5273 5270 5268 5265 5263 5259 5256 5254 5252 5251 5249 5247 5246 5245 5244 5242 5240 5239 5241 5241 5240 5239 5239 5240 5239 5237 5235 5234 5230 5228 5229 5231 5232 5232 5233 5233 5236 5242 5247 5249 5252 5255 5259 5262 5264 5266 5269 5273 5277 5284 5290 5295 5302 5308 5315 5321
5278 5274 5270 5268 5266 5262 5259 5257 5255 5252 5248 5246 5242 5239 5236 5234 5232 5231 5230 5229 5227 5225 5223 5221 5219 5220 5221 5220 5220 5221 5222 5220 5218 5217 5216 5214 5212 5213 5216 5217 5217 5218 5219 5223 5228 5232 5237 5241 5244 5248 5252 5255 5256 5258 5262 5268 5274 5280 5285 5290 5296 5303 5309
5263 5260 5256 5252 5249 5246 5242 5240 5238 5235 5231 5227 5225 5221 5217 5216 5213 5212 5211 5210 5209 5207 5204 5202 5200 5199 5199 5200 5200 5201 5201 5200 5199 5198 5197 5197 5196 5198 5201 5203 5203 5205 5207 5211 5216 5221 5226 5230 5233 5238 5242 5244 5246 5250 5255 5260 5264 5269 5274 5278 5285 5292 5297
5248 5244 5241 5237 5233 5229 5225 5222 5219 5216 5212 5208 5206 5202 5199 5197 5195 5192 5190 5189 5189 5188 5185 5182 5179 5178 5178 5178 5178 5179 5180 5180 5180 5179 5179 5180 5181 5183 5188 5190 5191 5193 5197 5201 5205 5211 5216 5220 5224 5229 5232 5235 5239 5243 5247 5250 5253 5259 5264 5268 5275 5283 5287
5233 5228 5224 5221 5217 5213 5208 5204 5200 5197 5192 5188 5184 5181 5178 5176 5174 5172 5170 5168 5167 5166 5164 5161 5158 5156 5156 5156 5156 5158 5159 5160 5161 5161 5162 5165 5166 5170 5176 5178 5179 5183 5187 5191 5196 5201 5206 5210 5216 5220 5223 5227 5232 5235 5237 5239 5243 5250 5255 5259 5267 5274 5278
5218 5213 5207 5202 5200 5196 5192 5187 5182 5177 5173 5170 5164 5158 5154 5152 5152 5151 5148 5145 5143 5143 5142 5140 5137 5135 5135 5135 5137 5139 5140 5142 5144 5146 5148 5151 5154 5159 5164 5166 5169 5174 5179 5182 5187 5192 5196 5202 5207 5212 5215 5219 5223 5225 5228 5231 5235 5241 5246 5252 5260 5266 5269
5201 5197 5191 5184 5181 5178 5174 5170 5163 5157 5153 5150 5144 5137 5130 5127 5127 5127 5125 5123 5121 5119 5119 5119 5118 5117 5117 5118 5120 5122 5124 5127 5130 5132 5135 5139 5143 5148 5153 5156 5160 5166 5170 5174 5178 5183 5188 5194 5199 5203 5207 5211 5215 5217 5220 5222 5227 5232 5238 5245 5253 5258 5261
5185 5179 5173 5166 5161 5159 5156 5151 5144 5138 5133 5128 5123 5117 5111 5105 5104 5104 5103 5102 5101 5099 5099 5100 5100 5101 5101 5103 5106 5108 5110 5114 5118 5121 5124 5129 5133 5138 5143 5148 5153 5157 5162 5166 5170 5174 5180 5186 5190 5195 5199 5203 5206 5209 5211 5214 5219 5226 5232 5239 5246 5250 5253
5167 5161 5155 5147 5142 5139 5136 5131 5124 5118 5113 5108 5103 5099 5093 5087 5085 5085 5084 5084 5083 5082 5083 5084 5085 5087 5089 5091 5093 5096 5100 5104 5107 5111 5115 5119 5124 5130 5136 5141 5145 5149 5154 5158 5162 5168 5173 5178 5182 5186 5191 5194 5197 5200 5203 5207 5213 5218 5225 5232 5239 5243 5246
5149 5143 5137 5130 5123 5118 5117 5113 5105 5099 5095 5090 5085 5081 5077 5072 5071 5069 5069 5069 5068 5069 5070 5071 5072 5074 5077 5080 5083 5087 5091 5094 5097 5102 5107 5112 5117 5123 5129 5133 5138 5143 5147 5151 5156 5161 5166 5170 5174 5178 5182 5186 5189 5193 5196 5200 5205 5211 5219 5227 5233 5237 5240
5131 5124 5118 5113 5106 5100 5099 5096 5088 5083 5079 5075 5069 5065 5062 5059 5058 5057 5057 5057 5057 5058 5059 5061 5062 5065 5068 5071 5074 5079 5083 5086 5089 5094 5100 5106 5111 5116 5122 5127 5132 5136 5140 5144 5149 5154 5159 5163 5167 5171 5175 5179 5183 5186 5189 5193 5199 5206 5215 5222 5227 5230 5233
5116 5108 5101 5096 5090 5084 5083 5080 5074 5068 5065 5061 5056 5052 5050 5048 5047 5047 5047 5047 5048 5049 5050 5052 5054 5057 5060 5064 5068 5073 5076 5078 5082 5088 5095 5100 5105 5110 5116 5121 5126 5129 5133 5137 5142 5147 5151 5155 5159 5164 5168 5171 5175 5179 5182 5187 5194 5203 5210 5216 5220 5222 5226
5100 5094 5087 5081 5075 5070 5067 5066 5061 5056 5053 5049 5045 5041 5040 5038 5038 5039 5039 5039 5040 5041 5043 5046 5049 5052 5055 5059 5063 5067 5070 5073 5078 5084 5090 5095 5100 5104 5110 5115 5119 5122 5126 5131 5136 5141 5145 5149 5153 5157 5160 5163 5167 5171 5176 5183 5191 5198 5204 5210 5213 5216 5221
5085 5081 5075 5069 5063 5058 5054 5053 5050 5046 5042 5039 5036 5033 5031 5030 5031 5031 5032 5033 5034 5036 5038 5041 5044 5047 5051 5055 5058 5062 5066 5070 5074 5080 5086 5090 5094 5099 5104 5109 5113 5117 5121 5126 5131 5135 5139 5143 5147 5150 5152 5156 5160 5165 5171 5179 5186 5193 5199 5204 5207 5211 5218
5072 5068 5064 5058 5054 5049 5045 5042 5040 5038 5034 5031 5028 5026 5025 5024 5025 5026 5027 5028 5030 5032 5034 5037 5040 5043 5047 5050 5054 5058 5063 5066 5071 5076 5081 5085 5090 5095 5099 5103 5107 5112 5116 5120 5124 5128 5132 5136 5139 5142 5145 5149 5155 5160 5167 5174 5181 5188 5195 5199 5202 5208 5214
5062 5057 5053 5049 5045 5041 5037 5034 5032 5030 5028 5025 5023 5021 5020 5020 5021 5022 5023 5024 5026 5029 5031 5034 5037 5040 5043 5047 5051 5055 5059 5063 5067 5072 5077 5081 5086 5090 5093 5097 5102 5107 5111 5115 5119 5122 5126 5130 5134 5137 5140 5145 5151 5157 5164 5171 5178 5185 5190 5194 5199 5204 5208
5053 5048 5045 5042 5038 5033 5030 5027 5025 5024 5023 5021 5019 5017 5016 5017 5018 5019 5020 5022 5024 5027 5030 5032 5035 5038 5041 5044 5048 5051 5055 5060 5064 5068 5073 5078 5082 5085 5089 5094 5099 5103 5106 5110 5114 5118 5122 5126 5129 5133 5137 5143 5149 5155 5162 5168 5175 5181 5185 5189 5194 5198 5202
5046 5041 5038 5035 5032 5028 5025 5022 5020 5019 5018 5017 5015 5014 5014 5015 5016 5017 5019 5021 5023 5025 5027 5029 5032 5035 5038 5041 5045 5049 5053 5056 5060 5065 5070 5074 5078 5082 5086 5091 5095 5099 5103 5107 5110 5114 5118 5122 5126 5130 5135 5141 5147 5153 5160 5166 5171 5176 5180 5184 5188 5192 5197
5039 5035 5032 5029 5027 5024 5020 5018 5017 5016 5015 5014 5013 5013 5013 5014 5015 5016 5018 5019 5021 5021 5023 5025 5028 5032 5036 5039 5043 5046 5050 5054 5058 5062 5067 5072 5075 5079 5083 5088 5092 5096 5099 5103 5106 5111 5115 5120 5124 5129 5134 5140 5145 5151 5156 5161 5166 5170 5174 5178 5182 5187 5192
5033 5029 5026 5024 5022 5020 5017 5015 5014 5013 5012 5012 5012 5012 5012 5013 5014 5016 5017 5018 5019 5021 5023 5025 5028 5031 5034 5037 5041 5045 5048 5052 5056 5060 5065 5069 5072 5076 5081 5085 5089 5092 5096 5100 5104 5109 5113 5118 5122 5127 5132 5136 5141 5145 5150 5156 5160 5164 5169 5173 5178 5183 5188
5028 5024 5021 5019 5018 5016 5014 5013 5012 5011 5011 5011 5011 5011 5012 5013 5014 5015 5016 5018 5020 5021 5024 5026 5029 5032 5034 5037 5040 5044 5048 5051 5055 5059 5063 5067 5070 5074 5079 5083 5086 5090 5094 5098 5102 5106 5111 5115 5119 5123 5127 5132 5136 5141 5147 5152 5157 5161 5166 5170 5175 5180 5185
5025 5021 5017 5016 5014 5012 5011 5011 5010 5010 5010 5010 5010 5011 5012 5013 5014 5015 5016 5018 5020 5022 5024 5026 5029 5032 5034 5037 5040 5043 5046 5050 5053 5057 5061 5065 5068 5073 5077 5081 5084 5088 5092 5096 5100 5103 5107 5111 5115 5120 5125 5129 5135 5140 5145 5150 5154 5159 5163 5167 5171 5177 5182
5022 5018 5015 5013 5012 5010 5009 5009 5009 5009 5009 5009 5009 5010 5011 5012 5014 5015 5016 5018 5020 5022 5024 5026 5028 5031 5033 5036 5038 5041 5045 5048 5052 5056 5059 5062 5066 5071 5075 5079 5083 5086 5090 5093 5097 5100 5104 5109 5113 5118 5123 5127 5133 5137 5142 5146 5151 5156 5159 5164 5169 5174 5179
5017 5015 5012 5011 5010 5008 5008 5007 5007 5007 5007 5008 5009 5010 5011 5012 5013 5015 5016 5017 5019 5021 5023 5025 5027 5030 5032 5034 5037 5039 5043 5046 5049 5053 5056 5060 5064 5068 5073 5077 5080 5084 5087 5091 5094 5098 5102 5106 5111 5115 5120 5125 5130 5134 5139 5143 5148 5152 5156 5161 5166 5171 5175
5013 5012 5010 5008 5007 5006 5006 5006 5006 5006 5007 5007 5008 5010 5011 5012 5013 5014 5015 5017 5018 5020 5022 5024 5027 5029 5031 5033 5035 5038 5040 5043 5047 5050 5054 5058 5062 5066 5071 5075 5078 5081 5085 5088 5091 5095 5099 5103 5108 5113 5118 5122 5127 5132 5136 5140 5145 5149 5153 5158 5163 5167 5172
5009 5009 5008 5007 5005 5005 5004 5005 5005 5006 5006 5007 5008 5009 5010 5011 5012 5013 5014 5016 5017 5019 5021 5024 5026 5028 5031 5033 5035 5037 5039 5041 5045 5048 5052 5056 5060 5065 5069 5073 5076 5079 5082 5085 5089 5092 5097 5101 5106 5110 5115 5120 5124 5129 5133 5137 5142 5146 5150 5155 5160 5164 5168
5008 5007 5006 5005 5004 5004 5004 5004 5005 5005 5006 5006 5007 5008 5009 5010 5011 5013 5014 5015 5017 5019 5021 5023 5025 5027 5030 5032 5034 5036 5038 5041 5044 5047 5051 5055 5059 5063 5067 5070 5073 5077 5080 5083 5087 5091 5095 5099 5104 5108 5113 5117 5121 5126 5130 5135 5139 5143 5148 5152 5156 5160 5165
5007 5005 5004 5004 5003 5003 5003 5003 5004 5005 5005 5006 5006 5007 5009 5010 5011 5012 5013 5015 5016 5018 5021 5022 5024 5026 5028 5031 5033 5036 5038 5041 5044 5047 5050 5054 5058 5061 5064 5067 5071 5075 5078 5081 5085 5089 5093 5097 5101 5106 5110 5114 5119 5123 5128 5132 5136 5140 5144 5149 5153 5157 5161
5005 5004 5003 5003 5002 5002 5002 5002 5003 5004 5005 5005 5006 5007 5008 5010 5011 5011 5012 5014 5016 5018 5020 5021 5023 5024 5027 5029 5032 5035 5037 5040 5043 5046 5049 5052 5055 5058 5061 5065 5069 5073 5076 5080 5083 5087 5091 5095 5099 5103 5108 5112 5116 5121 5125 5129 5133 5137 5141 5145 5149 5153 5157
5004 5003 5002 5002 5001 5001 5001 5002 5002 5003 5004 5005 5005 5007 5008 5009 5010 5011 5012 5013 5016 5017 5018 5019 5021 5023 5025 5028 5030 5033 5036 5038 5041 5044 5047 5050 5053 5056 5059 5063 5067 5071 5074 5078 5081 5085 5089 5093 5097 5101 5106 5110 5114 5118 5122 5126 5130 5134 5138 5142 5146 5150 5154
5003 5002 5001 5001 5000 5000 5001 5001 5002 5002 5003 5004 5005 5006 5008 5009 5010 5011 5012 5013 5015 5016 5017 5018 5020 5022 5024 5026 5029 5031 5034 5037 5040 5042 5045 5048 5051 5054 5058 5062 5066 5069 5073 5076 5080 5083 5087 5091 5095 5099 5104 5108 5112 5115 5119 5123 5127 5131 5135 5139 5143 5147 5152
Wind_Speed
80 81 82 82 83 83 84 85 85 87 88 89 90 91 91 92 92 93 93 92 92 92 92 93 92 92 91 91 92 93 94 94 94 95 96 98 98 97 97 97 98 99 96 94 95 96 96 99 100 101 102 102 102 102 101 101 101 100 99 98 97 96 95
82 83 84 85 85 86 86 87 88 89 90 91 92 93 93 94 94 95 95 95 94 93 94 94 94 93 92 93 94 95 95 95 95 96 97 99 100 99 97 97 98 99 97 96 96 97 97 99 100 99 98 98 98 98 99 100 100 100 99 99 98 97 96
86 86 87 88 88 89 90 91 91 92 93 94 95 95 95 96 97 97 97 97 96 96 96 96 96 95 94 95 97 97 97 96 96 97 98 100 102 100 98 97 98 99 99 97 97 97 96 97 95 92 90 89 90 91 93 95 96 97 97 97 97 97 96
88 89 89 90 91 92 92 93 94 94 95 96 97 97 97 97 98 99 99 98 98 98 98 99 99 98 97 98 99 99 97 97 97 97 98 101 103 102 99 98 98 99 99 98 97 95 92 90 87 82 80 81 82 84 86 88 90 92 93 94 94 94 94
87 89 89 90 91 92 92 93 94 94 95 96 97 98 98 98 99 99 100 100 100 100 101 102 102 101 101 101 101 100 98 98 98 98 99 101 104 103 100 98 97 97 97 95 92 88 84 81 78 75 74 76 77 78 80 82 83 85 87 89 90 90 91
86 87 88 88 89 90 90 91 92 93 93 94 95 96 97 98 99 99 100 101 102 103 104 105 105 104 103 103 102 101 100 99 100 100 100 102 103 102 99 96 94 92 91 88 84 80 75 73 72 70 71 72 73 74 75 77 78 80 81 83 85 86 87
83 84 85 86 86 87 88 89 90 91 92 93 94 96 97 99 100 101 102 103 104 105 106 107 107 106 105 104 103 102 101 101 101 100 100 100 101 100 96 91 88 85 83 80 76 73 69 68 68 68 68 70 71 71 72 73 74 74 76 79 81 82 84
82 83 84 85 86 87 88 89 90 91 93 94 96 98 99 101 102 103 104 105 106 107 107 108 108 108 107 106 105 104 103 102 101 99 97 96 96 94 89 83 80 78 76 73 71 68 66 65 66 66 66 68 68 69 69 69 70 71 73 76 77 78 80
83 84 85 86 87 89 90 92 93 94 96 98 99 101 102 104 105 106 107 107 107 108 108 109 109 109 109 108 106 104 102 100 97 94 91 90 90 87 80 75 74 73 71 69 67 66 64 64 64 63 65 65 65 65 65 67 69 69 71 74 74 75 77
85 86 88 89 90 92 94 95 97 98 100 101 103 104 105 106 106 107 108 109 109 109 109 109 109 109 107 105 102 99 96 92 89 86 83 82 82 78 71 69 71 70 67 66 66 64 63 62 61 61 63 62 61 61 62 65 67 68 70 71 71 71 73
88 90 92 93 94 95 96 98 99 101 102 103 105 107 108 108 108 108 109 109 109 108 107 106 104 102 99 96 92 88 85 82 78 76 76 76 75 70 65 67 68 66 65 65 64 63 62 61 60 60 61 60 59 59 60 62 64 66 68 69 68 68 70
92 93 95 97 97 98 99 100 102 103 104 105 106 107 108 108 107 107 106 105 103 101 98 95 92 88 86 83 79 76 74 71 70 69 70 70 68 64 63 65 65 64 63 63 62 62 61 59 58 58 58 57 56 56 58 60 63 65 67 67 66 65 67
95 96 98 99 100 100 101 102 103 104 103 103 102 102 101 101 99 98 96 93 90 88 85 81 78 75 73 71 68 66 65 63 63 64 65 65 63 62 61 62 62 61 61 61 61 60 59 57 57 57 56 55 55 55 56 59 62 65 66 65 63 63 64
97 98 99 100 101 101 100 100 100 99 96 94 93 91 90 89 88 86 84 81 78 75 72 69 66 64 62 60 58 58 57 57 58 60 60 60 60 59 58 59 59 59 58 59 59 58 57 56 56 55 55 55 56 55 56 59 62 64 65 64 62 61 62
98 98 98 98 98 97 96 93 92 89 87 85 84 82 80 79 77 75 72 69 66 63 59 57 55 54 52 51 51 50 50 52 55 56 56 56 56 56 56 56 56 55 56 56 57 56 55 54 54 54 55 55 56 55 56 60 63 64 64 62 60 60 61
95 94 93 92 92 91 88 85 83 80 78 76 74 71 69 67 65 63 60 58 55 52 50 48 47 46 46 46 45 44 45 49 52 52 52 53 53 53 53 53 53 53 54 55 55 54 53 52 53 53 54 55 56 56 58 61 63 63 62 59 58 59 60
89 88 87 86 84 83 79 75 73 71 67 64 62 60 59 57 55 53 51 48 46 44 42 41 40 40 40 40 40 41 44 47 49 49 48 49 49 50 50 50 50 51 53 54 53 52 52 52 52 53 54 56 57 57 59 61 62 61 59 58 57 59 59
82 80 79 78 77 74 71 66 62 59 56 54 53 53 51 49 47 45 43 40 38 37 35 34 34 35 35 35 37 39 43 46 46 45 45 46 46 47 48 48 49 50 51 51 51 51 51 51 52 53 54 55 56 57 59 61 60 59 58 57 58 59 58
75 73 71 70 68 65 61 57 53 50 48 47 46 45 44 42 39 36 33 31 30 29 29 29 29 30 31 32 35 38 40 42 43 42 42 43 44 45 46 46 47 48 48 48 48 48 49 49 49 49 51 52 55 58 59 60 59 58 57 57 58 57 56
69 68 65 63 59 56 53 50 46 43 40 39 39 38 37 34 31 27 25 24 24 24 24 24 25 27 29 31 34 36 38 39 40 39 40 42 43 43 44 45 46 46 47 47 47 48 48 47 47 47 49 52 55 58 58 58 58 56 56 56 56 55 54
64 63 60 56 52 49 47 45 40 36 33 32 32 32 30 27 23 21 19 20 21 21 21 23 24 26 28 31 33 34 36 37 38 38 39 40 41 42 43 44 44 45 46 47 47 47 47 46 46 48 50 52 54 55 56 56 55 54 54 55 54 53 53
59 58 54 50 47 44 42 39 35 31 28 27 27 26 24 21 18 16 17 18 18 18 20 22 24 25 28 30 32 33 35 36 36 37 38 38 40 41 42 42 43 44 44 44 44 44 44 44 45 47 49 50 51 52 53 53 53 53 53 54 53 53 53
54 53 49 45 41 38 36 34 31 27 23 22 22 21 19 16 14 14 15 16 16 18 20 22 24 25 27 29 31 33 34 35 36 36 37 37 38 40 40 41 41 42 41 41 41 42 42 42 44 45 46 48 49 50 51 51 51 52 52 53 53 52 52
50 48 45 40 35 32 31 30 27 23 19 17 17 17 15 13 12 13 14 15 17 20 22 24 24 25 27 29 31 32 33 34 35 35 36 36 37 39 39 39 39 39 38 39 39 39 39 40 41 43 44 45 46 48 49 50 51 51 51 51 52 52 51
46 44 41 36 30 26 26 25 22 19 15 14 14 14 13 11 12 13 14 16 19 21 22 23 24 25 27 29 30 31 32 33 34 34 35 36 37 38 37 37 37 37 35 36 35 35 37 39 41 42 44 45 47 49 50 50 50 50 50 49 50 50 50
41 38 36 32 27 23 21 20 18 15 12 11 11 11 11 11 11 13 14 16 18 19 20 20 21 23 25 27 28 29 30 31 32 33 34 35 36 36 35 35 35 34 32 33 35 35 37 40 42 44 45 47 49 49 49 49 48 48 47 47 48 49 48
35 32 32 29 24 21 18 16 14 12 10 10 10 10 11 10 11 12 13 15 16 17 18 19 20 22 24 25 27 28 29 30 31 32 33 35 35 35 34 33 33 31 30 32 36 37 38 41 43 44 45 46 47 47 46 46 45 44 45 46 47 47 46
28 25 26 24 21 18 15 13 11 10 9 9 9 9 10 10 10 12 13 14 16 17 18 19 20 21 23 24 26 27 28 30 31 32 33 34 34 34 33 32 31 31 31 33 36 38 39 41 42 43 43 43 44 44 43 43 43 43 45 46 46 46 45
23 19 20 19 16 14 12 10 9 8 7 7 8 9 9 9 10 12 13 15 16 17 18 19 19 19 19 20 23 25 27 28 30 32 33 34 34 34 34 32 32 31 31 32 35 37 39 40 41 41 40 41 41 41 41 42 42 43 45 46 45 44 44
23 17 16 16 13 10 9 8 8 7 6 6 7 8 9 10 10 12 14 15 16 18 19 20 20 19 18 18 19 22 25 27 29 31 32 33 34 34 33 32 32 31 30 31 34 36 38 40 40 39 39 40 40 40 41 42 42 44 45 45 44 43 43
24 18 14 13 11 8 6 6 7 7 6 7 7 8 9 10 11 12 14 15 17 19 21 22 21 20 19 19 19 21 24 26 28 30 31 32 32 31 31 32 33 32 31 31 34 36 38 38 38 38 39 40 40 41 41 42 43 44 44 44 42 42 41
21 19 14 11 9 7 5 5 6 7 7 7 8 8 9 10 11 12 14 16 18 20 22 22 22 21 21 21 22 24 25 27 28 29 29 29 29 29 31 32 34 33 31 32 34 35 36 37 38 39 39 40 41 41 41 41 42 43 43 42 41 41 41
18 16 13 10 8 6 6 5 6 7 7 7 8 8 10 11 12 13 14 16 18 19 19 20 21 22 23 24 25 26 27 28 28 28 28 27 28 29 31 33 34 33 32 32 33 35 35 36 37 38 39 40 40 40 40 40 41 42 42 42 41 41 41
19 15 12 9 7 6 6 6 6 7 8 8 8 8 10 11 13 14 14 15 15 15 16 18 20 22 24 25 26 27 28 29 29 29 29 28 29 31 32 33 34 33 32 32 32 34 35 35 36 37 38 38 38 39 39 41 42 42 42 42 42 42 42
18 15 11 9 7 7 6 7 7 8 8 9 9 9 10 11 12 13 14 13 12 12 15 18 20 22 24 25 26 27 28 29 30 29 29 30 31 31 32 32 33 33 33 32 32 33 34 34 35 35 36 36 37 38 40 41 41 42 42 42 42 42 42
14 12 10 9 8 7 7 7 8 9 10 11 10 9 10 11 11 12 12 12 11 12 14 16 18 20 22 23 25 27 28 29 29 29 29 30 31 31 31 32 32 32 32 32 32 33 33 34 34 35 35 36 37 38 40 40 41 41 42 42 42 41 41
Wind_Direction
271 271 271 271 271 272 272 272 272 272 272 272 272 273 273 273 273 273 273 273 273 273 273 273 273 273 273 274 275 275 275 276 276 275 274 273 272 271 271 271 271 270 269 268 268 268 267 267 266 265 264 262 260 257 254 252 250 248 247 245 245 244 244
273 273 273 273 273 273 273 273 273 273 273 273 273 273 274 274 274 273 273 273 273 272 272 272 273 273 274 274 275 275 275 275 275 274 274 273 273 272 271 271 271 271 270 269 269 269 268 267 266 264 262 260 257 255 252 250 247 245 244 244 243 243 243
276 275 275 275 275 275 275 275 275 275 274 274 274 274 274 273 273 273 273 273 273 273 273 273 273 274 274 275 275 275 275 275 274 274 273 273 273 272 272 271 272 272 271 271 270 269 267 266 264 260 258 255 253 251 249 247 245 243 242 241 241 241 241
278 277 277 277 277 276 276 276 276 276 275 275 275 274 274 273 273 273 273 273 273 273 274 274 274 274 275 275 275 275 275 274 273 273 273 273 272 272 272 272 272 271 271 270 269 267 265 262 260 255 252 250 248 248 247 245 243 242 240 240 239 239 239
280 279 279 278 278 278 277 277 277 276 276 275 275 274 274 273 273 273 273 273 274 274 275 275 275 275 275 275 275 275 274 274 273 272 272 272 272 272 272 271 270 270 269 268 266 264 260 257 254 250 246 245 245 245 244 243 241 240 239 238 237 237 237
281 281 280 279 279 278 278 277 277 276 276 275 275 274 274 274 273 273 274 274 275 275 276 276 276 276 275 275 275 274 274 273 272 272 271 270 270 270 270 269 268 266 265 263 262 259 255 252 249 246 243 242 243 243 242 241 239 238 238 237 236 235 235
282 282 281 280 280 279 279 278 277 277 277 276 275 275 275 275 274 275 275 275 275 276 276 276 276 276 275 275 274 274 273 272 271 270 269 268 268 267 267 265 263 261 260 258 256 253 250 248 246 243 241 240 241 241 241 240 238 236 236 236 234 234 233
284 283 283 282 282 281 280 280 279 278 278 277 277 277 276 276 276 276 276 276 276 276 276 276 276 276 275 275 274 273 272 271 269 268 266 264 264 264 263 261 258 256 254 253 251 249 247 245 243 241 240 239 240 240 240 240 238 236 234 234 233 232 232
286 285 285 284 284 283 283 282 281 281 280 279 278 278 278 277 277 277 277 277 276 276 276 276 276 275 275 274 273 272 270 268 266 264 261 260 259 259 258 255 252 251 250 249 248 246 245 243 242 240 238 239 239 240 240 239 237 235 233 233 232 231 231
288 288 287 286 285 285 285 284 283 283 282 282 281 280 280 279 279 278 278 277 277 276 276 275 275 274 273 272 271 269 267 265 262 259 256 254 254 254 252 249 247 247 246 246 245 244 243 242 240 238 238 238 238 240 240 239 236 234 232 232 231 229 229
290 289 289 288 287 287 286 286 285 285 284 284 283 283 282 281 280 279 278 278 277 276 275 274 273 272 271 270 268 266 264 260 257 253 250 249 249 249 246 244 243 243 243 243 243 243 242 240 238 237 237 237 237 239 240 238 235 232 231 231 230 228 228
292 291 290 290 289 288 288 287 287 286 285 285 284 283 283 282 281 279 278 277 276 275 274 273 271 270 268 267 265 262 259 255 251 248 246 245 245 245 242 240 241 241 241 241 241 241 240 238 236 235 235 236 237 239 239 236 232 230 229 229 228 227 227
293 293 292 291 290 289 289 288 287 287 286 285 284 284 283 282 281 280 279 278 276 275 273 271 269 267 265 263 260 257 254 250 246 243 242 242 242 241 238 238 239 239 239 239 239 239 237 236 235 233 233 234 236 237 237 233 229 228 227 227 227 226 226
294 294 293 292 291 290 290 289 288 288 287 286 285 284 283 282 281 280 278 277 275 273 271 269 267 264 260 258 255 251 248 244 241 239 238 239 239 237 236 236 237 238 237 237 237 237 235 234 233 231 231 233 235 236 234 230 227 226 225 225 224 224 225
295 294 293 293 292 291 291 290 289 288 287 286 285 284 282 281 280 279 277 276 274 272 270 267 263 259 254 250 247 245 241 238 237 235 235 235 235 235 234 235 235 236 236 236 235 235 233 232 232 231 232 233 234 234 232 226 224 223 223 223 222 222 224
296 295 294 293 292 292 291 290 289 288 288 287 285 284 282 280 279 277 276 275 273 271 267 263 257 253 248 244 240 236 233 233 233 232 231 232 233 233 233 233 233 233 233 233 232 232 231 232 232 233 234 235 235 234 229 223 221 221 221 221 221 221 223
297 296 295 294 293 292 291 291 290 290 289 287 285 283 282 280 278 276 275 273 271 268 262 256 251 246 242 238 233 228 227 229 229 228 227 229 231 231 231 231 231 230 230 230 229 229 229 230 232 233 235 236 236 232 226 221 219 219 219 219 220 221 222
298 297 296 295 294 294 293 293 292 291 290 287 285 283 281 279 277 275 273 271 267 262 255 249 244 239 235 231 228 224 224 226 227 225 226 227 228 229 228 228 228 227 227 227 227 228 229 231 234 236 237 236 231 225 221 219 218 218 218 218 220 221 221
300 299 298 297 297 297 297 296 294 292 290 287 284 282 280 278 276 273 270 266 260 254 248 242 237 233 229 225 222 222 223 226 226 225 224 225 225 226 226 225 225 225 225 226 227 229 231 234 236 237 235 230 222 218 217 217 217 217 217 218 220 220 219
302 301 300 299 300 300 299 297 295 293 290 287 284 282 279 277 274 269 263 257 251 244 239 234 229 225 222 219 219 221 222 225 225 223 221 222 222 223 223 222 222 222 224 225 226 228 231 233 232 229 226 221 216 214 215 216 215 215 216 218 219 219 219
304 302 302 303 303 301 299 297 296 293 289 285 283 280 277 274 270 262 253 245 240 233 228 225 221 218 218 218 219 220 221 223 222 219 218 219 219 219 220 221 221 221 222 224 226 228 230 229 226 223 220 216 214 214 215 215 214 214 216 218 219 219 219
305 303 304 305 303 301 299 297 296 293 289 284 280 277 274 269 262 252 241 234 230 226 222 221 219 217 217 218 217 218 219 219 219 217 215 215 217 218 219 220 221 221 223 225 227 228 228 225 223 221 217 214 213 213 214 214 214 214 216 217 219 219 219
305 305 305 305 303 301 299 297 296 294 288 282 277 273 268 261 251 240 232 224 221 220 218 217 216 214 215 216 215 215 216 216 216 214 212 214 217 219 219 219 221 222 224 225 225 225 224 222 220 218 215 213 212 212 212 212 213 214 216 218 218 218 218
306 306 305 304 303 301 297 295 295 293 286 278 272 266 260 252 240 230 224 218 215 215 214 212 210 209 210 212 213 213 213 213 214 213 212 213 217 218 218 218 220 222 223 222 223 222 220 218 216 214 212 211 211 211 211 212 213 215 217 218 218 217 217
308 307 305 304 304 300 295 294 293 289 281 272 265 259 252 241 230 223 219 216 215 214 213 211 209 206 207 209 211 212 212 213 214 213 212 213 215 217 217 218 220 221 221 220 220 218 215 214 213 212 211 210 209 210 212 213 214 215 216 216 216 216 215
310 308 304 304 305 299 294 292 288 282 274 263 255 250 242 233 224 219 216 214 215 214 213 211 209 208 208 210 211 213 214 215 215 214 211 212 215 217 218 218 219 220 220 218 216 215 214 213 212 211 209 208 209 210 212 214 215 215 215 215 215 215 214
311 307 302 303 304 299 293 289 282 274 263 253 245 240 233 226 219 214 211 211 213 215 214 212 211 212 213 214 214 215 216 216 215 212 211 213 216 218 218 217 217 219 219 218 217 217 217 215 212 209 207 207 208 211 213 214 215 214 214 214 214 213 213
310 305 299 297 296 293 289 283 274 263 251 241 235 228 221 214 210 209 209 210 214 217 219 217 215 215 216 216 216 216 216 215 213 212 213 214 216 217 215 214 216 218 219 219 219 220 218 214 210 206 204 205 208 211 214 214 214 213 213 213 212 212 213
311 306 297 292 287 284 281 275 264 251 237 228 222 217 211 208 209 212 213 217 220 221 220 217 212 211 214 217 217 214 213 213 212 212 213 214 214 214 212 211 214 217 217 218 219 219 216 212 208 206 206 208 210 213 214 214 212 212 212 212 211 212 213
315 310 301 293 285 276 270 265 251 233 219 215 215 215 213 213 217 218 218 220 220 218 214 210 208 208 212 218 218 212 209 208 208 209 210 210 210 211 211 212 214 216 217 216 216 214 212 210 208 208 209 210 213 214 214 213 212 211 212 211 212 213 214
317 312 302 293 285 273 260 251 236 218 207 210 217 221 220 219 220 220 218 215 214 212 211 210 210 211 212 213 211 205 201 201 202 203 205 206 208 211 212 213 215 216 216 215 212 210 209 208 208 209 210 211 213 214 213 212 212 211 211 212 213 214 215
319 312 303 292 279 263 245 237 230 217 209 212 220 224 222 218 217 217 214 211 209 211 213 214 214 214 211 207 203 199 196 196 198 200 203 205 208 211 213 213 214 214 214 213 209 207 207 208 209 209 210 210 211 212 212 211 211 211 212 212 213 214 213
322 312 302 289 271 249 230 225 229 226 218 215 218 222 221 215 211 211 212 214 215 217 219 219 218 217 213 208 204 201 200 200 201 203 205 207 209 211 212 211 211 212 212 211 208 205 205 207 207 208 208 209 210 210 210 210 210 211 211 212 213 213 212
320 313 300 284 262 240 225 217 219 224 222 215 212 217 220 217 212 210 213 219 223 224 223 221 218 216 214 211 209 208 207 207 208 207 208 209 210 210 209 207 208 210 211 209 206 205 205 205 205 206 206 207 208 208 208 208 209 210 211 211 212 212 211
312 307 295 276 251 234 226 218 212 214 217 211 205 211 219 219 217 215 216 219 220 217 216 214 211 210 211 211 211 211 212 212 212 210 208 209 209 207 204 203 205 208 208 206 204 204 204 204 204 204 205 205 206 207 207 208 209 209 210 211 211 211 211
309 301 286 266 243 226 223 221 213 210 212 206 200 205 216 219 219 221 220 215 208 204 205 205 203 203 206 208 209 210 211 211 210 208 206 206 205 202 200 200 202 204 205 203 203 203 203 202 202 202 202 203 204 205 207 208 209 210 211 212 212 211 210